sat.trackr.live / text

‹ back to catalog

STARLINK-35997

NORAD 66843 · 2025-280Y

PAYLOAD ACTIVE UNKNOWN

§ Identity

Operator
Country
US
Launch date
2025-12-02
Launch site
AFWTR
Launch vehicle
Mass (kg)
RCS (m²)

Purposes: comms

External: N2YO · Heavens-Above · Gunter

§ Orbital elements

Epoch: 2026-05-25T02:30:45.241920Z

Period
96.11 min
Inclination
70.0002°
Eccentricity
0.0003905
Mean motion
14.98336427 rev/d
Perigee alt
569.3 km
Apogee alt
574.8 km
Semi-major
6,950.2 km
B*
3.3066e-4
RAAN
141.7234°
Arg perigee
267.1995°
Mean anomaly
92.8717°
Rev number
2,752

§ Raw data

STARLINK-359971 66843U 25280Y   26145.10469030  .00003855  00000+0  33066-3 0  99962 66843  70.0002 141.7234 0003905 267.1995  92.8717 14.98336427 27523

JSON: /api/v1/satellites/66843 · /tle

For live sub-satellite position, see the globe view (requires WebGL).

§ Visibility from observer

Set your observer location to see the next 7 days of passes ≥ 10°. The values pass through the URL so the page stays shareable.

No JS? Fill the form by hand. The geolocation button needs JavaScript.